Waarnemingen

Advertentie
Mijn weer
Fair Isle, Groot Brittannië (3008): temperatuur & dauwpunt: 16.08.2018 00:00:00 - 22.08.2018 00:00:00 (BST)Fair Isle, Groot Brittannië (3008): temperatuur -20cm & temperatuur -100cm: 16.08.2018 00:00:00 - 22.08.2018 00:00:00 (BST)Fair Isle, Groot Brittannië (3008): windsnelheid & windstoten: 16.08.2018 00:00:00 - 22.08.2018 00:00:00 (BST)Fair Isle, Groot Brittannië (3008): windrichting: 16.08.2018 00:00:00 - 22.08.2018 00:00:00 (BST)Fair Isle, Groot Brittannië (3008): luchtdruk: 16.08.2018 00:00:00 - 22.08.2018 00:00:00 (BST)Fair Isle, Groot Brittannië (3008): zicht: 16.08.2018 00:00:00 - 22.08.2018 00:00:00 (BST)Fair Isle, Groot Brittannië (3008): neerslag: 16.08.2018 00:00:00 - 22.08.2018 00:00:00 (BST)
Datum & Tijd tt [°C] td [°C] tt -20cm [°C] tt -100cm [°C] ff [km/u] ff [kn] fx [km/u] fx [kn] dd ppp [hPa] vv [km] rr [mm]
22.08.2018 00:00:00 13,4 13,4 - - 34 18 48 26 Z 1004,2 5 -
21.08.2018 23:00:00 13,3 13,3 - - 37 20 55 30 Z 1004,9 4,0 1,6
21.08.2018 22:00:00 13,3 13,3 - - 39 21 59 32 Z 1005,6 4,8 0,6
21.08.2018 21:00:00 13,4 13,3 - - 41 22 57 31 Z 1006,6 6 0,2
21.08.2018 20:00:00 13,3 13,2 - - 41 22 55 30 ZZO 1007,3 8 0,0
21.08.2018 19:00:00 13,2 13,0 - - 39 21 55 30 ZZO 1008,6 9 0,0
21.08.2018 18:00:00 13,2 12,8 - - 44 24 57 31 ZZO 1009,9 10 0,0
21.08.2018 17:00:00 13,0 12,6 - - 42 23 57 31 ZZO 1011,5 12 0,0
21.08.2018 16:00:00 12,8 12,6 - - 44 24 57 31 ZZO 1013,0 4,0 0,0
21.08.2018 15:00:00 13,0 12,2 - - 35 19 48 26 ZO 1014,1 14 0,0
21.08.2018 14:00:00 13,1 12,2 - - 28 15 - - ZO 1015,2 15 0,0
21.08.2018 13:00:00 13,1 12,0 - - 22 12 - - ZO 1016,2 19 0,0
21.08.2018 12:00:00 13,2 11,6 - - 18 10 - - ZO 1017,2 30 0,0
21.08.2018 11:00:00 13,3 12,0 - - 18 10 - - ZO 1017,9 40 0,0
21.08.2018 10:00:00 12,6 11,4 14,2 13,0 15 8 - - ZO 1018,5 30 0,0
21.08.2018 09:00:00 12,3 11,2 - - 13 7 - - ZO 1018,9 30 0,0
21.08.2018 08:00:00 12,0 11,0 - - 11 6 - - ZO 1019,1 50 0,0
21.08.2018 07:00:00 11,8 10,9 - - 8 4 - - ZO 1019,1 45 0,0
21.08.2018 06:00:00 11,1 10,1 - - 9 5 - - Z 1019,5 45 0,0
21.08.2018 05:00:00 11,4 9,9 - - 8 4 - - ZW 1019,5 35 0,0
21.08.2018 04:00:00 11,4 10,3 - - 8 4 - - ZZW 1019,7 50 0,0
21.08.2018 03:00:00 11,0 9,7 - - 8 4 - - Z 1020,0 50 0,0
21.08.2018 02:00:00 11,1 10,0 - - 9 5 - - ZZW 1020,0 40 0,0
21.08.2018 01:00:00 11,3 10,0 - - 5 3 - - ZZW 1020,2 35 0,0
21.08.2018 00:00:00 11,4 9,8 - - 5 3 - - ZW 1020,4 35 0,0
20.08.2018 23:00:00 11,1 9,1 - - 8 4 - - WZW 1020,3 40 0,0
20.08.2018 22:00:00 11,3 9,7 - - 4 2 - - ZZW 1020,0 40 0,0
20.08.2018 21:00:00 11,8 9,8 - - 5 3 - - W 1019,8 50 0,0
20.08.2018 20:00:00 11,6 9,3 - - 11 6 - - WNW 1019,6 45 0,0
20.08.2018 19:00:00 12,2 8,9 - - 11 6 - - W 1019,3 35 0,0
20.08.2018 18:00:00 12,5 9,7 - - 11 6 - - WNW 1019,3 40 0,0
20.08.2018 17:00:00 12,9 9,8 - - 11 6 - - WNW 1019,3 35 0,0
20.08.2018 16:00:00 12,9 9,3 - - 15 8 - - W 1019,5 30 0,0
20.08.2018 15:00:00 13,6 9,8 - - 13 7 - - WNW 1019,1 45 0,0
20.08.2018 14:00:00 13,4 9,9 - - 13 7 - - W 1018,8 35 0,0
20.08.2018 13:00:00 13,5 10,6 - - 15 8 - - W 1018,8 35 0,0
20.08.2018 12:00:00 13,1 10,7 - - 13 7 - - W 1018,4 27 0,0
20.08.2018 11:00:00 12,9 9,9 - - 13 7 - - WNW 1017,9 35 0,0
20.08.2018 10:00:00 12,3 9,8 14,2 13,2 15 8 - - WNW 1017,8 25 0,0
20.08.2018 09:00:00 11,0 10,4 - - 11 6 - - W 1017,7 20 0,0
20.08.2018 08:00:00 11,6 10,0 - - 16 9 - - W 1017,4 12 0,0
20.08.2018 07:00:00 11,9 10,1 - - 16 9 - - W 1016,9 30 0,0
20.08.2018 06:00:00 11,5 9,4 - - 11 6 - - W 1016,5 26 0,0
20.08.2018 05:00:00 11,5 9,5 - - 11 6 - - W 1016,4 30 0,0
20.08.2018 04:00:00 11,2 9,5 - - 11 6 - - W 1016,8 22 0,0
20.08.2018 03:00:00 11,5 9,8 - - 13 7 - - W 1017,0 30 0,0
20.08.2018 02:00:00 11,4 10,1 - - 13 7 - - W 1017,2 29 0,0
20.08.2018 01:00:00 10,9 9,9 - - 8 4 - - W 1017,1 24 0,0
20.08.2018 00:00:00 10,1 8,7 - - 11 6 - - W 1017,1 35 0,0
19.08.2018 23:00:00 10,8 9,4 - - 15 8 - - WNW 1017,0 30 0,0
19.08.2018 22:00:00 11,4 9,8 - - 16 9 - - WNW 1016,9 30 0,0
19.08.2018 21:00:00 11,3 9,7 - - 15 8 - - NW 1016,8 21 0,0
19.08.2018 20:00:00 11,8 9,7 - - 16 9 - - WNW 1016,7 30 0,0
19.08.2018 19:00:00 12,6 9,8 - - 13 7 - - WNW 1016,5 30 0,0
19.08.2018 18:00:00 12,9 9,4 - - 16 9 - - WNW 1016,5 25 0,0
19.08.2018 17:00:00 13,3 9,7 - - 15 8 - - WNW 1016,3 24 0,0
19.08.2018 16:00:00 13,4 9,9 - - 13 7 - - NW 1016,0 30 0,0
19.08.2018 15:00:00 13,3 8,9 - - 15 8 - - NW 1015,9 28 0,0
19.08.2018 14:00:00 12,8 8,2 - - 11 6 - - NW 1015,7 30 0,0
19.08.2018 13:00:00 12,8 8,0 - - 13 7 - - NW 1015,4 35 0,0
19.08.2018 12:00:00 13,2 8,2 - - 11 6 - - WNW 1015,0 35 0,0
19.08.2018 11:00:00 12,6 7,6 - - 9 5 - - NW 1014,9 40 0,0
19.08.2018 10:00:00 12,4 7,8 14,2 13,2 8 4 - - N 1014,6 30 0,0
19.08.2018 09:00:00 11,8 8,2 - - 9 5 - - NNW 1014,3 30 0,0
19.08.2018 08:00:00 11,7 8,3 - - 9 5 - - NNW 1013,7 30 0,0
19.08.2018 07:00:00 10,8 8,5 - - 9 5 - - NNW - 13 0,0
19.08.2018 06:00:00 10,3 8,4 - - 8 4 - - NW - - 0,0
19.08.2018 05:00:00 10,8 9,2 - - 9 5 - - NW - - 0,0
19.08.2018 04:00:00 10,7 9,9 - - 13 7 - - WNW 1013,0 12 0,0
19.08.2018 03:00:00 10,7 9,7 - - 11 6 - - WNW 1012,7 11 0,0
19.08.2018 02:00:00 11,4 10,2 - - 11 6 - - WNW 1012,3 12 0,0
19.08.2018 01:00:00 11,6 11,1 - - 9 5 - - W 1011,9 11 0,0
19.08.2018 00:00:00 11,7 11,3 - - 15 8 - - W 1011,5 9 0,0
18.08.2018 23:00:00 11,5 11,0 - - 15 8 - - W 1011,0 11 0,2
18.08.2018 22:00:00 11,8 11,0 - - 18 10 - - W 1010,3 11 0,0
18.08.2018 21:00:00 11,8 10,8 - - 29 16 - - W 1009,3 14 0,0
18.08.2018 20:00:00 12,0 11,0 - - 34 18 55 30 WZW 1008,8 9 0,0
18.08.2018 19:00:00 12,3 11,1 - - 39 21 55 30 WZW 1007,8 8 0,0
18.08.2018 18:00:00 12,8 11,4 - - 37 20 55 30 WZW 1006,7 7 0,2
18.08.2018 17:00:00 12,9 11,4 - - 41 22 59 32 WZW 1005,8 5 0,0
18.08.2018 16:00:00 12,3 11,5 - - 46 25 70 38 WZW 1004,8 8 0,2
18.08.2018 15:00:00 13,2 11,4 - - 52 28 76 41 WZW 1003,6 6 0,0
18.08.2018 14:00:00 12,9 11,0 - - 54 29 87 47 WZW 1003,1 9 0,0
18.08.2018 13:00:00 13,8 10,3 - - 65 35 87 47 WZW 1002,3 13 0,0
18.08.2018 12:00:00 13,3 10,2 - - 52 28 74 40 ZW 1001,8 13 0,0
18.08.2018 11:00:00 12,9 10,8 - - 48 26 89 48 ZW 1001,5 10 0,2
18.08.2018 10:00:00 12,4 10,6 14,4 13,2 50 27 70 38 ZW 1001,1 9 1,2
18.08.2018 09:00:00 11,4 10,6 - - 46 25 80 43 WZW 1001,2 4,0 0,2
18.08.2018 08:00:00 12,3 11,1 - - 37 20 55 30 ZW 1000,9 10 0,2
18.08.2018 07:00:00 12,1 11,0 - - 34 18 59 32 ZZW - 13 0,4
18.08.2018 06:00:00 12,4 10,7 - - 31 17 59 32 ZZW - - 0,0
18.08.2018 05:00:00 12,1 10,8 - - 37 20 63 34 ZW - - 0,2
18.08.2018 04:00:00 12,4 10,5 - - 34 18 70 38 ZW - - 0,0
18.08.2018 03:00:00 12,1 10,6 - - 44 24 74 40 ZW 1002,0 22 0,0
18.08.2018 02:00:00 12,7 10,7 - - 44 24 59 32 WZW 1001,6 13 0,0
18.08.2018 01:00:00 12,8 10,8 - - 42 23 61 33 ZW 1001,5 14 0,0
18.08.2018 00:00:00 12,8 11,3 - - 39 21 54 29 WZW 1001,8 16 0,0
17.08.2018 23:00:00 12,4 12,2 - - 35 19 50 27 ZW 1001,8 5 0,2
17.08.2018 22:00:00 13,0 12,3 - - 35 19 54 29 ZZW 1001,7 13 0,0
17.08.2018 21:00:00 13,1 11,9 - - 37 20 50 27 Z 1001,8 13 0,0
17.08.2018 20:00:00 13,2 11,4 - - 34 18 46 25 Z 1002,5 18 0,0
17.08.2018 19:00:00 13,3 11,5 - - 34 18 46 25 Z 1002,8 15 0,0
17.08.2018 18:00:00 13,2 11,3 - - 24 13 - - ZZO 1003,6 19 0,0
17.08.2018 17:00:00 13,3 10,6 - - 28 15 - - Z 1004,6 24 0,0
17.08.2018 16:00:00 13,0 10,9 - - 28 15 - - Z 1005,3 29 0,0
17.08.2018 15:00:00 13,7 11,4 - - 31 17 - - ZZW 1005,8 19 0,0
17.08.2018 14:00:00 14,8 12,3 - - 28 15 - - Z 1005,9 21 0,0
17.08.2018 13:00:00 14,2 11,9 - - 24 13 - - ZZW 1006,1 23 0,0
17.08.2018 12:00:00 14,4 12,0 - - 29 16 - - ZZW 1005,9 19 0,0
17.08.2018 11:00:00 13,7 11,8 - - 28 15 - - ZW 1005,9 16 0,0
17.08.2018 10:00:00 13,2 11,4 14,5 13,2 28 15 - - ZW 1005,7 15 0,0
17.08.2018 09:00:00 12,2 10,5 - - 29 16 48 26 ZW 1005,4 20 0,0
17.08.2018 08:00:00 12,2 10,0 - - 37 20 48 26 ZW 1004,9 24 0,0
17.08.2018 07:00:00 11,9 10,1 - - 37 20 48 26 ZW - 20 0,0
17.08.2018 06:00:00 11,6 10,3 - - 29 16 54 29 ZW - - 0,0
17.08.2018 05:00:00 11,8 10,0 - - 37 20 50 27 ZW - - 0,0
17.08.2018 04:00:00 11,6 10,6 - - 31 17 48 26 ZW - - 0,0
17.08.2018 03:00:00 11,8 10,3 - - 39 21 50 27 WZW 1003,5 20 0,0
17.08.2018 02:00:00 11,8 11,1 - - 24 13 - - ZW 1003,4 12 0,0
17.08.2018 01:00:00 11,7 10,8 - - 26 14 - - ZW 1003,3 13 0,0
17.08.2018 00:00:00 12,0 11,3 - - 31 17 - - ZW 1003,1 15 1,2
16.08.2018 23:00:00 12,4 11,3 - - 28 15 - - ZW 1002,8 11 0,0
16.08.2018 22:00:00 12,0 10,9 - - 18 10 - - ZZW 1002,6 15 0,0
16.08.2018 21:00:00 12,2 10,5 - - 24 13 - - WZW 1002,2 15 0,0
16.08.2018 20:00:00 12,6 10,4 - - 28 15 - - ZW 1001,9 17 0,0
16.08.2018 19:00:00 13,2 10,9 - - 24 13 - - ZW 1001,5 30 0,0
16.08.2018 18:00:00 13,6 10,8 - - 28 15 - - WZW 1001,3 18 0,0
16.08.2018 17:00:00 13,3 11,7 - - 21 11 - - ZW 1001,3 15 0,4
16.08.2018 16:00:00 13,2 11,4 - - 21 11 - - Z 1000,9 20 0,0
16.08.2018 15:00:00 13,9 12,0 - - 22 12 - - Z 1000,7 16 0,0
16.08.2018 14:00:00 14,7 12,5 - - 24 13 - - Z 1000,8 11 0,0
16.08.2018 13:00:00 14,3 12,0 - - 24 13 - - ZZW 1000,8 13 0,0
16.08.2018 12:00:00 14,9 13,2 - - 22 12 - - ZZW 1000,7 11 0,0
16.08.2018 11:00:00 13,9 12,4 - - 22 12 - - Z 1000,8 15 0,0
16.08.2018 10:00:00 14,0 11,9 14,7 13,2 21 11 - - Z 1000,7 20 0,0
16.08.2018 09:00:00 13,4 10,7 - - 22 12 - - Z 1000,9 14 0,0
16.08.2018 08:00:00 12,6 10,4 - - 18 10 - - Z 1000,8 20 0,0
16.08.2018 07:00:00 11,6 10,5 - - 16 9 - - Z 1000,8 19 0,0
16.08.2018 06:00:00 10,4 9,1 - - 11 6 - - Z 1000,8 18 0,0
16.08.2018 05:00:00 11,3 10,4 - - 16 9 - - Z 1000,8 16 0,0
16.08.2018 04:00:00 11,1 10,4 - - 16 9 - - Z 1001,1 12 0,0
16.08.2018 03:00:00 11,2 10,5 - - 15 8 - - ZZW 1001,1 11 0,0
16.08.2018 02:00:00 11,7 10,6 - - 21 11 - - ZW 1001,1 12 0,0
16.08.2018 01:00:00 12,1 10,8 - - 31 17 50 27 WZW 1001,2 18 0,0
16.08.2018 00:00:00 12,6 11,3 - - 29 16 46 25 ZW 1000,9 29 0,0

tt = temperatuur
td = dauwpunt
tt -20cm = temperatuur -20cm
tt -100cm = temperatuur -100cm
ff = windsnelheid
fx = windstoten
dd = windrichting
ppp = luchtdruk
vv = zicht
rr = neerslag

Weerstations in de omgeving